sat.trackr.live / text

‹ back to catalog

ONEWEB-0431

NORAD 51630 · 2022-012J

PAYLOAD ACTIVE UNKNOWN

§ Identity

Operator
Country
UK
Launch date
2022-02-10
Launch site
FRGUI
Launch vehicle
Mass (kg)
RCS (m²)

Purposes: comms

External: N2YO · Heavens-Above · Gunter

§ Orbital elements

Epoch: 2026-05-25T03:36:37.603008Z

Period
109.89 min
Inclination
87.8857°
Eccentricity
0.0001204
Mean motion
13.10376028 rev/d
Perigee alt
1,220.8 km
Apogee alt
1,222.6 km
Semi-major
7,599.8 km
B*
1.3412e-3
RAAN
40.8523°
Arg perigee
75.9316°
Mean anomaly
284.1945°
Rev number
20,632

§ Raw data

ONEWEB-04311 51630U 22012J   26145.15043522  .00000481  00000+0  13412-2 0  99972 51630  87.8857  40.8523 0001204  75.9316 284.1945 13.10376028206327

JSON: /api/v1/satellites/51630 · /tle

For live sub-satellite position, see the globe view (requires WebGL).

§ Visibility from observer

Set your observer location to see the next 7 days of passes ≥ 10°. The values pass through the URL so the page stays shareable.

No JS? Fill the form by hand. The geolocation button needs JavaScript.